CZ-6A DEB, 61459

Orbit data source: Space-Track

CZ-6A DEB, 61459 is space debris in LEO originally from a launch on Tue, 06 Aug 2024 UTC launched from the Taiyaun Space Center, China (TSC). Debris objects in space refer to the collection of defunct objects orbiting the Earth. Examples of debris include non-operational satellites, rocket bodies, and fragments generated from explosions, collisions, or faulty payload assembly.

Loading next visibility...
Identifier
61459, 2024-140ZR
Orbit
LEO
Country
Flag of CNCN / PRC
Related business
Manufacturer
SAST
Mission
Spacecraft
Bus & Motor
Unknown
Mass
Unknown
Launch date (UTC)
2024-08-06 (2 years ago)
Launch vehicle
Unknown
Launch site
Taiyaun Space Center, China (TSC)
Object type
Payload
Rocket body
Debris
Shape & HBR
Unknown shape, 0.1 m
Radar Cross Section
Medium (>0.1 m² and <1 m²)

Expand to show TLE details & history
Last TLE update: 9 hours ago

TLE from 9 hours ago
0 CZ-6A DEB
1 61459U 24140ZR  26171.46380462  .00000859  00000-0  24477-3 0  9995
2 61459  88.4565 226.3155 0040516 269.3572  90.2988 14.43886037 96192
Epoch: 2026-06-20T11:07Z
TLE epoch observation values (Epoch: 2026-06-20T11:07:52.719Z)
Latitude
-0.00006°
Longitude
150.66778°
Altitude
749.04 km
Speed
7.48 km/s
True Right ascension
15h 05m 15s
True Declination
0° 00' 00"
Sunlit
Object was in full shadow at epoch
Visualization orbit readout
Latitude
Unknown
Longitude
Unknown
Altitude
Unknown
Speed
Unknown
Apparent Right ascension
Unknown
Apparent Declination
Unknown
Sunlit
N/A
Visualization observer readout
Local Sidereal Time
07:21:38
Azimuth
Unknown
Elevation
Unknown
Doppler factor
Unknown
Orbital elements
Apogee altitude
771.459 km
Perigee altitude
713.758 km
Semi-major axis
7,120.746 km
Eccentricity
0.00405
Inclination
88.4565°
RAAN
226.3155°
Arg. of periapsis
269.3572°
True anomaly
90.76306°
Mean anomaly
90.2988°
Eccentric anomaly
90.53093°
Mean motion
3.61206 °/min
Orbital period
99.67 mins
BSTAR
0.00024477
Loading maneuver chart data...
Computing Atmospheric mass density...
Loading historical data...
Loading historical data...
Loading historical data...
Loading historical data...
Loading historical data...
Loading historical data...
Loading historical data...

Documentation

Showing up to 5 results
|